Voltar ao catálogo

CZ-3C DEB

AtivoHEO
NORAD 39341·DEBRIS·🇨🇳 China

Lançado Oct 31, 2010 de Xichang Satellite Launch Center

Loading…

Próximas Passagens (próximas 24 horas)

TLE

AtualizadoSource: Space-Track

Época: Sep 11, 2026, 11:42 UTC

1 39341U 10057F   26254.48771197  .00000824  00000-0  24502-2 0  9995
2 39341  19.2166 285.0922 6664731 105.6532 332.2670  2.97860476122322

Acompanhe CZ-3C DEB em tempo real com AllMySat

Download on the App Store